CMB836 Details

Departure: Kuwait International Airport (OKBK)
Arrival: Ramstein Air Force Base (ETAR) at N/A
Route: RALKA3F RALKA G795 TASMI L602 ALPET UM860 SRT UG8 ULSAB UT334 INB UL746 ODERO T86 MATEL T746 NEPOT L746 EVRIK L850 BUDOP LAMSI L604 SULUS L984 FFM
Notes: USTRANSCOM CONTRACT FLIGHT


Current Weather Information
OKBK 231300Z 11003KT 6000 NSC 35/16 Q1009 NOSIG
ETAR 231256Z 06008KT 9999 OVC012 14/12 A2995 RMK AO2A SLP148 T01370124 $